www.pogodaiklimat.ru

Погода и климат >> Архив погоды >> Россия >> Пензенская область >> Пенза


АРХИВ ПОГОДЫ в Пензе

Время (UTC), дата Ветер
(напр.,м/с)
 
Видим.   Явления Облачность Т
(С)
Тd
(С)
f
(%)
Тe
(С)
Тes
(С)
Комфортность P
(гПа)
Po
(гПа)
Тmin
(С)
Tmax
(С)
R
(мм)
R24
(мм)
S
(см)
12 15.08 Ю 2 10 км 3/3 1000 м
[Sc]
+31.1 +15.8 40 +34 +39 душно 1012.2 993.3
15 15.08 ЮВ 3 10 км ясно +29.3 +17.0 47 +33 +34 душно 1011.7 992.7 +31.5
18 15.08 ЮВ 2 10 км 3/0
[Ac trans Ci fib]
+26.2 +15.1 50 +29 +29 жарко 1012.8 993.5
21 15.08 Ю 1 10 км 3/0
[Cs]
+22.5 +15.4 64 +26 +26 жарко 1013.5 994.0
00 16.08 В 1 10 км 4/0
[As op Cs]
+20.2 +15.1 72 +24 +24 комфорт 1013.5 993.8
03 16.08 В 1 10 км 8/0
[Ac As Cc]
+19.5 +15.0 75 +22 +23 комфорт 1013.4 993.6 +19.1
06 16.08 Ю 3 10 км 4/0
[Ci fib]
+26.5 +14.6 48 +29 +35 жарко 1012.3 993.1
09 16.08 Ю 4 10 км 8/0
[Ci]
+30.5 +11.2 30 +31 +38 жарко 1011.0 992.1
12 16.08 ЮВ 3 10 км 8/0
[Ac cast Ci]
+30.0 +12.6 34 +31 +36 жарко 1010.3 991.3
15 16.08 ЮВ 2 10 км 8/0
[Ac cast Ci]
+27.6 +15.5 48 +31 +31 душно 1009.8 990.7 +31.2
18 16.08 В 1 10 км 8/0
[Ac As Ci]
+23.6 +16.1 63 +27 +27 жарко 1010.2 990.8
21 16.08 В 1 10 км 8/0
[Ci fib]
+23.2 +16.2 65 +28 +28 душно 1010.3 990.9
00 17.08 СВ 2 10 км 10/0
[Cs]
+20.7 +17.5 82 +25 +25 комфорт 1011.6 992.0
03 17.08 СВ 3 4000 м дождь 10/0 1500 м
[As op]
+19.5 +17.9 90 +22 +22 комфорт 1011.9 992.3 +19.5 0.6
06 17.08 В 2 4000 м дымка {дождь} 10/0
[As op]
+19.7 +19.4 98 +23 +25 комфорт 1012.1 992.5 +19.2
09 17.08 В 2 10 км 10/0
[Ac As]
+22.1 +17.3 74 +27 +30 душно 1012.0 992.5
12 17.08 В 3 10 км {дождь} 10/5 600 м
[Sc As op]
+23.0 +18.0 73 +28 +29 душно 1012.2 992.7
15 17.08 В 2 10 км 10/3 1000 м
[Sc Ac As]
+23.2 +18.1 73 +29 +29 душно 1011.1 991.7 +23.6 0.6
18 17.08 В 1 10 км 10/0
[Ac As]
+22.3 +16.8 71 +27 +27 душно 1010.6 991.2
21 17.08 СВ 1 10 км в посл. час дождь 10/10 800 м
[Sc]
+21.7 +14.0 62 +25 +25 комфорт 1009.4 989.9
00 18.08 ЮВ 3 10 км {дождь} 10/8 1000 м
[Sc As op]
+20.9 +12.8 60 +24 +24 комфорт 1009.8 990.2
03 18.08 Ю 1 10 км 10/0
[Ac As]
+20.7 +13.6 64 +24 +25 комфорт 1010.1 990.6 +20.5 0.0
06 18.08 ЮВ 3 10 км 8/0
[Ac As Cc]
+23.6 +15.5 60 +27 +30 жарко 1010.8 991.5
09 18.08 Ю 3 10 км 9/0
[Cc]
+27.5 +14.9 46 +30 +39 жарко 1011.4 992.2
12 18.08 Ю 3 10 км 9/3 1000 м
[Cu hum Ci fib]
+28.5 +15.7 46 +32 +35 душно 1011.9 992.8
15 18.08 ЮВ 2 10 км 9/4 1000 м
[Cb cap Ac As Ci fib]
+26.1 +18.2 62 +31 +31 очень
душно
1012.5 993.3 +29.0
18 18.08 З 4 10 км 8/0
[Ac As]
+23.7 +14.8 57 +26 +26 жарко 1014.0 994.5
21 18.08 СВ 2 10 км слаб. ливневой дождь 10/5 1000 м
[Cb cap As op]
+20.6 +17.3 81 +25 +25 комфорт 1015.0 995.4
00 19.08 В 2 10 км {ливн. осадки} 10/0
[As op]
+19.6 +15.6 78 +22 +22 комфорт 1014.8 995.1
03 19.08 В 1 10 км 8/0
[Ac trans]
+19.4 +16.4 83 +22 +23 комфорт 1015.6 995.9 +19.0 0.3
06 19.08 Ю 1 10 км 8/0
[Ac trans]
+23.8 +16.3 63 +27 +32 жарко 1015.8 996.3
09 19.08 ЮЗ 3 10 км 8/3 600 м
[Cb cap Ac As Cc]
+29.2 +11.8 34 +30 +35 жарко 1015.9 996.7
12 19.08 З 2 10 км 5/3 600 м
[Cb cap Ac trans Cc]
+31.3 +12.8 32 +32 +37 жарко 1015.2 996.2
15 19.08 З 3 10 км 6/0
[Ac trans Cc]
+29.7 +13.2 36 +31 +31 жарко 1015.8 996.7 +31.9
18 19.08 С 2 10 км 8/0
[Ac As]
+23.1 +17.6 71 +28 +28 душно 1018.0 998.5
21 19.08 С 1 10 км ясно +20.5 +16.1 76 +25 +25 комфорт 1018.8 999.1
00 20.08 штиль 0 10 км 4/0
[Ac trans]
+17.3 +16.7 96 +17 +17 тепло 1019.5 999.5
03 20.08 СВ 2 10 км 5/0
[Ac trans Cs]
+18.1 +16.1 88 +19 +19 тепло 1020.0 1000.1 +17.1
06 20.08 СВ 2 10 км 6/0
[Ac cast Ci fib]
+22.2 +16.2 69 +26 +31 душно 1020.2 1000.6
09 20.08 С 2 10 км 3/3 1000 м
[Cb cap Ac cast]
+26.0 +15.7 53 +29 +38 душно 1019.6 1000.2
12 20.08 С 2 10 км 8/4 1000 м
[Cb cap Ac cast]
+25.4 +15.3 54 +28 +31 жарко 1019.3 999.9
15 20.08 С 2 10 км {ливн. осадки} 6/5 1000 м
[Cb cap Ac cast]
+25.6 +15.1 52 +28 +29 жарко 1019.5 1000.1 +27.2 0.0
18 20.08 С 2 10 км {ливн. осадки} 1/0
[Ac lent]
+22.3 +14.8 63 +26 +26 жарко 1020.3 1000.7
21 20.08 С 1 10 км ясно +19.8 +14.3 71 +23 +23 комфорт 1021.2 1001.4
00 21.08 С 1 10 км ясно +17.2 +14.0 81 +18 +18 тепло 1021.6 1001.5
03 21.08 СВ 1 10 км 1/0
[Ac lent]
+17.6 +14.2 80 +19 +19 тепло 1022.7 1002.7 +14.4
06 21.08 В 2 10 км ясно +22.2 +15.4 65 +26 +33 душно 1022.5 1002.8
09 21.08 СВ 3 10 км 6/5 1000 м
[Sc diur, vesp Ci fib]
+25.9 +13.5 46 +28 +33 жарко 1021.7 1002.3
12 21.08 СВ 3 10 км 6/3 1000 м
[Sc diur, vesp Cs]
+26.9 +12.6 41 +28 +32 жарко 1021.2 1001.8
15 21.08 СВ 3 10 км 4/0
[Ac trans Cs]
+26.6 +13.2 44 +29 +29 жарко 1020.8 1001.4 +27.5
18 21.08 штиль 0 10 км 1/0
[Ci fib]
+19.7 +15.4 76 +22 +22 комфорт 1021.9 1002.0
21 21.08 В 1 4000 м дымка ясно +16.5 +15.1 91 +17 +17 тепло 1022.1 1002.0
00 22.08 штиль 0 4000 м дымка ясно +15.5 +15.2 98 +15 +15 тепло 1022.4 1002.3
03 22.08 штиль 0 4000 м дымка ясно +15.4 +15.2 99 +15 +16 по сезону 1022.9 1002.7 +13.4
06 22.08 В 1 10 км ясно +23.5 +15.9 62 +27 +35 душно 1022.0 1002.4
09 22.08 В 2 10 км 3/3 1000 м
[Cu hum]
+26.5 +14.9 49 +29 +38 жарко 1020.8 1001.4

 

Местоположение метеостанции Пенза (Пензенская область, Россия): широта 53.12 долгота 45.02 высота над уровнем моря 172 м.

В архиве по умолчанию представлена погода в Пензе за последнюю неделю. Архивные данные за месяц целиком и за предыдущие месяцы, начиная с января 2011 года, Вы можете получить, выбрав интересующий диапазон дат из раскрывающегося списка и нажав кнопку "Ввод!".


*Определитесь, кто Вы:
робот инопланетянин человек

Внимание! Время в таблицах - всемирное. Для получения местного времени необходимо прибавить поправку, которая равна 3 ч.

Смотрите также архив погоды в соседних городах и на ближайших метеорологических станциях:

Погода в Кондоле (Пензенская область, Россия) (34 км)
Погода в Городище (Пензенская область, Россия) (47 км)
Погода в Колышлее (Пензенская область, Россия) (54 км)
Погода в Каменке (Пензенская область, Россия) (66 км)
Погода в Инсаре (Мордовия, Россия) (94 км)
Погода в Радищево (Пензенская область, Россия) (95 км)
Погода в Петровске (Саратовская область, Россия) (97 км)
Погода в Белинском (Пензенская область, Россия) (110 км)
Погода в Саранске (Мордовия, Россия) (113 км)
Погода в Пачелме (Пензенская область, Россия) (116 км)

Пояснения к столбцам:

Ветер - указаны скорость ветра в м/с - средняя за 10 мин, порывы в срок и между сроками (в фигурных скобках) и направление, откуда дует ветер: С - северный, СВ - северо-восточный, В - восточный, ЮВ - юго-восточный, Ю - южный, ЮЗ - юго-западный, З - западный, СЗ - северо-западный.
Видимость - горизонтальная дальность видимости в метрах или километрах. При видимости от 1 до 10 км при отсутствии осадков обычно наблюдается дымка, при ухудшении видимости до 1 км и менее - туман. В сухую погоду видимость может ухудшаться дымом, пылью или мглою.
Явления - указаны атмосферные явления, наблюдавшиеся в срок или в последний час перед сроком; фигурными скобками обозначены явления, наблюдавшиеся между сроками (за 1-3 часа до срока); квадратными скобками обозначены град или гололедные отложения с указанием их диаметра в мм.
Облачность - указаны через наклонную черту общая и нижняя облачность в баллах и высота нижней границы облаков в метрах; квадратными скобками обозначены формы облаков: Ci - перистые, Cs - перисто-слоистые, Cc - перисто-кучевые, Ac - высококучевые, As - высокослоистые, Sc - слоисто-кучевые, Ns - слоисто-дождевые, Cu - кучевые, Cb - кучево-дождевые. Подробнее классификацию облаков см. в Атласе облаков (PDF).
T - Температура воздуха - температура, измеренная на высоте 2 м над землей.
Td - Температура точки росы - температура, при понижении до которой содержащийся в воздухе водяной пар достигнет насыщения.
f - Относительная влажность воздуха - влажноcть воздуха, измеренная на высоте 2 м над землей.
Te - Эффективная температура - температура, которую ощущает одетый по сезону человек в тени. Характеристика душности погоды. При расчете учитывается влияние влажности воздуха и скорости ветра на теплоощущения человека.
Tes - Эффективная температура на солнце - температура, которую ощущает человек, с поправкой на солнечный нагрев. Характеристика знойности погоды. Зависит от высоты солнца над горизонтом, облачности и скорости ветра. Ночью, в пасмурную погоду, а также при ветре 12 м/с и более поправка равна нулю.
P - Атмосферное давление - приведенное к уровню моря атмосферное давление.
Po - Атмосферное давление - измеренное на уровне метеостанции атмосферное давление.
Tmin - Минимальная температура - минимум температуры воздуха на высоте 2 м над землей.
Tmax - Максимальная температура - максимум температуры воздуха на высоте 2 м над землей.
R - Количество осадков - Количество выпавших осадков за период времени, мм. При наведении курсора мыши на число - период времени, за который выпало указанное количество осадков.
R24 - Количество осадков - Количество выпавших осадков за 24 часа, мм.
S - Снежный покров - Высота снежного покрова, см. При наведении курсора мыши на число - состояние снежного покрова и степень покрытия местности в баллах.